Find Starlink 5444

NORAD ID: 54768 Int'l Des: 2022-175 Owner: SPXS Country: US Constellation: starlink operational
LEOCIRCULAR

現在のビュー

3D地球を読み込み中...

About Starlink 5444

Starlink 5444 (NORAD 54768) is a starlink constellation satellite (v1.5) launched Dec 17, 2022 by SPXS of US. It operates in LEO, CIRCULAR orbit with a mass of 305.00 kg.

次回通過

Passes for default location (London). Set your location on the main map for personalized predictions.

高度履歴

Loading altitude history...

軌道要素

1 54768U 22175L 26265.54710556 -.00000008 00000-0 11525-4 0 9998
2 54768 53.1602 210.3293 0001330 91.4139 268.7014 15.31702914210052
Epoch: Sep 22, 2026 • Age: 17 hours

現在のステータス

高度 485.6 km
遠地点 / 近地点 N/A
速度 7.62 km/s
衛星直下点 -42.11°S, 70.94°E
打ち上げ日 Dec 17, 2022
運用期間 3.7 years
タイプ internet

技術仕様

分類 Payload
質量 305.00 kg
乾燥質量 290.00 kg
長さ 0.20 m
スパン 9.00 m
形状 ? Box + pan
製造者 SPXS
バスタイプ Starlink
フェーズステータス In Orbit
所有者/国 SPXS/US

Most Searched